PRRAF EDDP-EDVK

Flight info

Callsign PRRAF
Flight time 0h 27m
Altitude 30000
Route ORTAG5Q/08L ORTAG T811 LUXUX
Aircraft C700/M-SDE2FGIRWY/LB1

Departure

Time 2026-04-30 20:27
Airport Leipzig/Halle Airport (EDDP)

Arrival

Time 2026-04-30 20:55
Airport Kassel Airport (EDVK)
Time Latitude Longitude Altitude Speed Heading
2026-04-30 19:59 51.42026 12.21209 425 ft 0 kts 15°
2026-04-30 20:19 51.42050 12.21219 422 ft 0 kts 15°
2026-04-30 20:20 51.42055 12.21222 425 ft 4 kts 15°
2026-04-30 20:20 51.42109 12.21237 425 ft 5 kts 336°
2026-04-30 20:21 51.42127 12.21168 422 ft 11 kts 284°
2026-04-30 20:21 51.42171 12.21001 425 ft 20 kts 317°
2026-04-30 20:21 51.42256 12.21013 429 ft 16 kts 13°
2026-04-30 20:21 51.42392 12.21071 435 ft 24 kts 18°
2026-04-30 20:22 51.42544 12.21139 429 ft 25 kts 14°
2026-04-30 20:22 51.42700 12.21205 427 ft 12 kts 17°
2026-04-30 20:22 51.42767 12.21236 427 ft 1 kts 15°
2026-04-30 20:22 51.42776 12.21240 419 ft 3 kts 14°
2026-04-30 20:23 51.42783 12.21243 422 ft 2 kts 15°
2026-04-30 20:23 51.42812 12.21256 427 ft 7 kts 15°
2026-04-30 20:23 51.42848 12.21271 427 ft 0 kts 15°
2026-04-30 20:24 51.42870 12.21281 427 ft 13 kts 19°
2026-04-30 20:24 51.42978 12.21424 427 ft 23 kts 45°
2026-04-30 20:25 51.43020 12.21493 420 ft 0 kts 45°
2026-04-30 20:25 51.43076 12.21583 430 ft 24 kts 44°
2026-04-30 20:26 51.43134 12.21768 427 ft 0 kts 85°
2026-04-30 20:26 51.43161 12.22348 428 ft 101 kts 86°
2026-04-30 20:26 51.43232 12.23891 587 ft 167 kts 86°
2026-04-30 20:27 51.43686 12.28027 2180 ft 193 kts 65°
2026-04-30 20:27 51.44634 12.32141 4610 ft 210 kts 75°
2026-04-30 20:28 51.45994 12.36847 7402 ft 263 kts 52°
2026-04-30 20:28 51.49397 12.40254 9973 ft 336 kts 20°
2026-04-30 20:29 51.54075 12.39201 9323 ft 340 kts 334°
2026-04-30 20:30 51.58394 12.30509 7102 ft 345 kts 289°
2026-04-30 20:30 51.61368 12.19727 7093 ft 357 kts 310°
2026-04-30 20:31 51.67041 12.12095 7421 ft 361 kts 315°
2026-04-30 20:32 51.70253 12.01520 10400 ft 354 kts 283°
2026-04-30 20:32 51.70164 11.93262 13425 ft 381 kts 267°
2026-04-30 20:33 51.69958 11.88930 14837 ft 392 kts 268°
2026-04-30 20:33 51.69504 11.79962 17526 ft 410 kts 268°
2026-04-30 20:33 51.69272 11.75329 18818 ft 419 kts 268°
2026-04-30 20:34 51.68783 11.65620 19429 ft 447 kts 268°
2026-04-30 20:34 51.68251 11.55534 19440 ft 453 kts 268°
2026-04-30 20:35 51.67991 11.50480 19438 ft 453 kts 268°
2026-04-30 20:35 51.67723 11.45413 19446 ft 453 kts 268°
2026-04-30 20:35 51.66731 11.35378 19420 ft 457 kts 254°
2026-04-30 20:36 51.65524 11.30629 19422 ft 458 kts 244°
2026-04-30 20:36 51.63847 11.26287 19422 ft 458 kts 233°
2026-04-30 20:36 51.59302 11.19261 19422 ft 456 kts 213°
2026-04-30 20:37 51.56661 11.16473 19427 ft 455 kts 212°
2026-04-30 20:37 51.54170 11.13311 19429 ft 457 kts 222°
2026-04-30 20:37 51.52044 11.09516 19426 ft 457 kts 232°
2026-04-30 20:37 51.50340 11.05212 19423 ft 457 kts 243°
2026-04-30 20:38 51.49104 11.00527 19426 ft 455 kts 253°
2026-04-30 20:38 51.48369 10.95618 19424 ft 453 kts 263°
2026-04-30 20:38 51.48112 10.90591 19429 ft 451 kts 270°
2026-04-30 20:39 51.47769 10.80542 19436 ft 451 kts 269°
2026-04-30 20:39 51.47596 10.75527 19436 ft 450 kts 269°
2026-04-30 20:39 51.47428 10.70505 19427 ft 450 kts 269°
2026-04-30 20:40 51.47069 10.60476 19426 ft 450 kts 269°
2026-04-30 20:40 51.46886 10.55459 19428 ft 450 kts 269°
2026-04-30 20:40 51.46708 10.50516 19428 ft 450 kts 269°
2026-04-30 20:41 51.46844 10.40575 19417 ft 442 kts 288°
2026-04-30 20:41 51.48106 10.36150 19417 ft 434 kts 308°
2026-04-30 20:41 51.50152 10.32692 19422 ft 423 kts 327°
2026-04-30 20:41 51.52734 10.30564 19428 ft 413 kts 346°
2026-04-30 20:42 51.55531 10.29771 19430 ft 407 kts 359°
2026-04-30 20:42 51.58342 10.29256 19419 ft 411 kts 351°
2026-04-30 20:42 51.63080 10.24011 19423 ft 432 kts 310°
2026-04-30 20:43 51.64616 10.19814 19426 ft 437 kts 300°
2026-04-30 20:43 51.65890 10.15406 19428 ft 439 kts 297°
2026-04-30 20:43 51.67084 10.10889 19429 ft 439 kts 296°
2026-04-30 20:44 51.69389 10.01759 19430 ft 439 kts 295°
2026-04-30 20:44 51.70526 9.97193 19430 ft 439 kts 295°
2026-04-30 20:44 51.72797 9.88052 19424 ft 439 kts 295°
2026-04-30 20:45 51.74920 9.79443 19416 ft 381 kts 295°
2026-04-30 20:45 51.75731 9.75484 19408 ft 374 kts 282°
2026-04-30 20:45 51.75591 9.71160 19410 ft 389 kts 256°
2026-04-30 20:46 51.70372 9.64220 19411 ft 306 kts 181°
2026-04-30 20:46 51.68334 9.64334 19414 ft 282 kts 167°
2026-04-30 20:47 51.64596 9.64024 19412 ft 265 kts 192°
2026-04-30 20:47 51.62906 9.62867 19316 ft 267 kts 205°
2026-04-30 20:48 51.59953 9.58264 17260 ft 326 kts 238°
2026-04-30 20:48 51.59029 9.54831 16231 ft 342 kts 252°
2026-04-30 20:48 51.58324 9.51116 15243 ft 352 kts 252°
2026-04-30 20:48 51.57596 9.47310 14284 ft 359 kts 252°
2026-04-30 20:49 51.56854 9.43457 13224 ft 363 kts 252°
2026-04-30 20:49 51.56112 9.39609 12203 ft 365 kts 252°
2026-04-30 20:49 51.55361 9.35706 11094 ft 367 kts 251°
2026-04-30 20:50 51.53809 9.27712 8267 ft 377 kts 251°
2026-04-30 20:50 51.53021 9.23641 6561 ft 385 kts 251°
2026-04-30 20:50 51.52244 9.19631 6131 ft 359 kts 250°
2026-04-30 20:50 51.51438 9.15976 5698 ft 334 kts 241°
2026-04-30 20:51 51.50010 9.13271 5266 ft 307 kts 211°
2026-04-30 20:51 51.46256 9.12496 4513 ft 262 kts 159°
2026-04-30 20:51 51.44727 9.13852 4191 ft 245 kts 139°
2026-04-30 20:52 51.43674 9.15915 3887 ft 235 kts 119°
2026-04-30 20:52 51.43161 9.18371 3576 ft 232 kts 101°
2026-04-30 20:52 51.42929 9.23369 2986 ft 217 kts 97°
2026-04-30 20:53 51.42795 9.25768 2686 ft 214 kts 97°
2026-04-30 20:53 51.42683 9.28098 2412 ft 200 kts 96°
2026-04-30 20:53 51.42578 9.30102 2228 ft 163 kts 97°
2026-04-30 20:54 51.42406 9.33156 2112 ft 127 kts 98°
2026-04-30 20:54 51.42324 9.34736 1382 ft 155 kts 95°
2026-04-30 20:54 51.42230 9.36392 1279 ft 140 kts 95°
2026-04-30 20:55 51.42093 9.38924 845 ft 44 kts 94°
2026-04-30 20:55 51.42072 9.39330 845 ft 33 kts 95°